Location: Bismarck
(46.7731°N, 100.8200°W)
Time: 19:13:46
(UTC-05:00)

Amateur Radio Satellites - All Passes

Search period start: 22 March 2017 18:43
Search period end: 23 March 2017 18:43
Location: Bismarck, 46.7731°N, 100.8200°W

Satellite Date Start Highest point End Downlink Frequencies (MHz)
Time Altitude Azimuth
LilacSat-2 22 Mar 18:45:32 18:49:19 60° 73° (ENE) 18:53:06 437.200
STARS 22 Mar 18:45:39 18:50:04 59° 101° (ESE) 18:54:25 437.465
SO-50 22 Mar 18:48:42 18:52:39 27° 321° (NW) 18:56:36 436.795
XW-2F 22 Mar 18:52:23 18:56:10 67° 74° (ENE) 18:59:57 145.980 - 146.000
M-CUBED/EXP-1 PRIME 22 Mar 19:03:44 19:06:27 15° 96° (E) 19:09:11 437.505
HO-68 22 Mar 19:07:00 19:13:17 35° 59° (ENE) 19:19:34 435.675
XW-2D 22 Mar 19:15:27 19:19:14 61° 260° (W) 19:23:02 145.860 - 145.880
XW-2B 22 Mar 19:21:19 19:25:04 53° 260° (W) 19:28:49 145.730 - 145.750
XW-2A 22 Mar 19:21:46 19:24:29 22° 67° (ENE) 19:27:10 145.665 - 145.685
NUDT-PHONESAT 22 Mar 19:31:25 19:35:04 49° 260° (W) 19:38:44 437.300
XW-2C 22 Mar 19:31:28 19:35:05 40° 262° (W) 19:38:43 145.795 - 145.815
KAITUO 1B 22 Mar 19:32:58 19:36:36 47° 261° (W) 19:40:15 145.475/437.950
KKS-1 22 Mar 19:33:43 19:37:20 24° 296° (WNW) 19:40:56 437.445
YUBILEINY 22 Mar 19:38:47 19:47:10 49° 72° (ENE) 19:55:30 435.215
CUTE-I 22 Mar 19:40:49 19:46:00 48° 261° (W) 19:51:13 437.470
DOVE 4 22 Mar 19:43:24 19:47:29 31° 266° (W) 19:51:51 437.250
CUTE 1.7 + AOD 2 22 Mar 19:45:52 19:49:43 35° 69° (ENE) 19:53:34 437.475
AAUSAT CUBESAT 2 22 Mar 19:47:35 19:49:38 14° 61° (ENE) 19:51:42 437.432
SEEDS 22 Mar 19:48:05 19:51:32 26° 66° (ENE) 19:54:58 437.485
UWE-3 22 Mar 19:54:45 19:57:43 17° 61° (ENE) 20:00:40 435.000/436.395/437.385
O/OREOS (USA 219) 22 Mar 19:58:11 20:02:25 38° 303° (WNW) 20:06:44 437.305
CUBESAT XI-V 22 Mar 20:00:11 20:03:26 19° 298° (WNW) 20:06:40 437.345
CUBEBUG 2 22 Mar 20:17:09 20:21:33 39° 69° (ENE) 20:25:59 437.445
LilacSat-2 22 Mar 20:22:31 20:23:59 12° 271° (W) 20:25:27 437.200
STARS 22 Mar 20:23:02 20:25:58 18° 299° (WNW) 20:28:53 437.465
PCSat 22 Mar 20:24:33 20:30:00 69° 54° (NE) 20:35:24 145.827
XW-2F 22 Mar 20:30:00 20:30:45 10° 272° (W) 20:31:29 145.980 - 146.000
M-CUBED/EXP-1 PRIME 22 Mar 20:36:43 20:41:16 71° 291° (WNW) 20:45:54 437.505
STRAND 1 22 Mar 20:40:33 20:45:19 37° 97° (E) 20:50:01 437.568
ZACube-1 22 Mar 20:44:34 20:48:29 29° 67° (ENE) 20:52:22 437.345
Oscar 11 22 Mar 20:46:00 20:49:23 23° 65° (ENE) 20:52:47 .
RS-15 22 Mar 20:46:02 20:57:24 39° 21° (NNE) 21:08:28 29.354- 29.394
HO-68 22 Mar 20:53:43 21:00:43 56° 259° (WSW) 21:07:45 435.675
XW-2A 22 Mar 20:54:10 20:57:08 26° 264° (W) 21:00:06 145.665 - 145.685
AO-73 22 Mar 21:15:02 21:19:26 51° 72° (ENE) 21:23:48 145.935
AAUSAT CUBESAT 2 22 Mar 21:20:30 21:24:35 68° 259° (WSW) 21:28:41 437.432
CUTE 1.7 + AOD 2 22 Mar 21:22:15 21:25:38 23° 267° (W) 21:29:02 437.475
SEEDS 22 Mar 21:23:21 21:27:06 32° 264° (W) 21:30:53 437.485
UWE-3 22 Mar 21:29:01 21:33:40 67° 258° (WSW) 21:38:19 435.000/436.395/437.385
YUBILEINY 22 Mar 21:35:52 21:43:52 43° 274° (W) 21:51:51 435.215
DELFI C3 22 Mar 21:44:54 21:48:13 27° 68° (ENE) 21:51:33 145.870
CUBEBUG 2 22 Mar 21:54:15 21:58:16 27° 267° (W) 22:02:17 437.445
PCSat 22 Mar 22:08:57 22:12:51 20° 253° (WSW) 22:16:45 145.827
M-CUBED/EXP-1 PRIME 22 Mar 22:13:20 22:14:57 12° 309° (NW) 22:16:36 437.505
STRAND 1 22 Mar 22:19:53 22:24:24 32° 295° (WNW) 22:28:53 437.568
ZACube-1 22 Mar 22:20:30 22:24:39 34° 264° (W) 22:28:48 437.345
Oscar 11 22 Mar 22:21:14 22:25:18 40° 262° (W) 22:29:23 .
PRISM 22 Mar 22:33:25 22:36:34 20° 93° (E) 22:39:41 437.425
AO-85 22 Mar 22:49:32 22:53:33 35° 119° (ESE) 22:57:21 145.980
AO-73 22 Mar 22:52:42 22:55:56 19° 269° (W) 22:59:10 145.935
RS-15 22 Mar 22:59:41 23:12:09 79° 50° (NE) 23:24:04 29.354- 29.394
LO-87 22 Mar 23:04:20 23:07:18 25° 68° (ENE) 23:10:18 145.935 - 145.965
DELFI C3 22 Mar 23:19:37 23:22:58 27° 265° (W) 23:26:21 145.870
TIGRISAT 22 Mar 23:28:58 23:33:11 38° 97° (E) 23:37:14 435.000
FO-29 22 Mar 23:34:19 23:39:49 31° 92° (E) 23:44:46 435.910
UNISAT 6 22 Mar 23:37:42 23:42:05 50° 99° (E) 23:46:20 437.425
SPROUT 22 Mar 23:38:34 23:39:59 11° 58° (ENE) 23:41:23 437.525
ISS 22 Mar 23:43:14 23:46:18 39° 144° (SE) 23:49:24 437.550
VELOX 1 22 Mar 23:55:59 23:59:11 20° 62° (ENE) 00:02:24 145.980
SO-50 22 Mar 23:56:06 23:59:36 21° 35° (NE) 00:03:05 436.795
ESTCUBE 1 22 Mar 23:59:52 00:04:16 60° 72° (ENE) 00:08:41 437.505/2401.250
Tancredo 1 23 Mar 00:01:59 00:05:08 60° 148° (SSE) 00:08:18 437.200
PRISM 23 Mar 00:08:07 00:12:00 40° 291° (WNW) 00:15:53 437.425
50 SAT 23 Mar 00:23:01 00:25:25 18° 65° (ENE) 00:27:51 437.505
BEESAT 3 23 Mar 00:29:34 00:33:09 35° 118° (ESE) 00:36:49 437.485
AO-85 23 Mar 00:30:06 00:33:58 32° 316° (NW) 00:37:39 145.980
UKube-1 23 Mar 00:36:30 00:39:14 17° 60° (ENE) 00:41:58 .
BEESAT 2 23 Mar 00:36:40 00:39:24 18° 113° (ESE) 00:42:11 435.950
LO-87 23 Mar 00:37:42 00:40:42 25° 265° (W) 00:43:44 145.935 - 145.965
NANOSAT C BR1 23 Mar 00:58:43 01:02:24 28° 95° (E) 01:06:03 145.865
EO-79 23 Mar 01:00:27 01:04:17 32° 96° (E) 01:08:05 145.935-145.965
TIGRISAT 23 Mar 01:06:01 01:09:40 25° 296° (WNW) 01:13:16 435.000
SPROUT 23 Mar 01:10:54 01:15:11 89° 88° (E) 01:19:32 437.525
RS-15 23 Mar 01:13:04 01:23:33 36° 255° (WSW) 01:33:41 29.354- 29.394
UNISAT 6 23 Mar 01:15:10 01:18:26 20° 298° (WNW) 01:21:38 437.425
FO-29 23 Mar 01:19:04 01:25:10 47° 295° (WNW) 01:30:35 435.910
ISS 23 Mar 01:19:33 01:22:45 48° 343° (NNW) 01:25:59 437.550
DX 1 23 Mar 01:21:52 01:26:08 60° 72° (ENE) 01:30:28 434.975-435.025
POLYITAN 1 23 Mar 01:27:01 01:31:16 61° 102° (ESE) 01:35:26 437.675
AIST 2D 23 Mar 01:29:27 01:32:55 59° 285° (WNW) 01:36:21 435.315
VELOX 1 23 Mar 01:31:02 01:35:18 49° 260° (W) 01:39:37 145.980
QB50P2 23 Mar 01:31:24 01:35:41 74° 103° (ESE) 01:39:54 145.880/145.840
SO-50 23 Mar 01:36:03 01:40:34 76° 235° (SW) 01:45:02 436.795
Tancredo 1 23 Mar 01:38:22 01:41:25 39° 348° (NNW) 01:44:28 437.200
ESTCUBE 1 23 Mar 01:38:44 01:41:28 16° 270° (W) 01:44:12 437.505/2401.250
DUCHIFAT 1 23 Mar 01:50:09 01:54:25 90° 81° (E) 01:58:37 145.980
50 SAT 23 Mar 01:55:09 01:58:17 32° 263° (W) 02:01:26 437.505
BEESAT 3 23 Mar 02:07:19 02:10:49 29° 318° (NW) 02:14:22 437.485
UKube-1 23 Mar 02:10:34 02:14:49 60° 258° (WSW) 02:19:06 .
BEESAT 2 23 Mar 02:12:55 02:16:48 52° 311° (NW) 02:20:46 435.950
BEESAT 23 Mar 02:17:44 02:20:49 17° 59° (ENE) 02:23:53 436.000
BUGSAT 1 23 Mar 02:23:21 02:27:35 72° 102° (ESE) 02:31:45 437.445
ITUPSAT 1 23 Mar 02:30:28 02:34:05 22° 61° (ENE) 02:37:42 437.325
NANOSAT C BR1 23 Mar 02:34:23 02:38:06 30° 293° (WNW) 02:41:46 145.865
EO-79 23 Mar 02:36:22 02:39:57 27° 294° (WNW) 02:43:31 145.935-145.965
O/OREOS (USA 219) 23 Mar 02:47:40 02:50:06 14° 44° (NE) 02:52:33 437.305
ISS 23 Mar 02:56:37 02:59:40 34° 3° (N) 03:02:44 437.550
Gurwin Techsat 1B 23 Mar 02:57:39 03:02:17 29° 94° (E) 03:06:52 435.225
DX 1 23 Mar 03:00:13 03:02:43 15° 270° (W) 03:05:16 434.975-435.025
POLYITAN 1 23 Mar 03:04:01 03:06:34 16° 299° (WNW) 03:09:05 437.675
QB50P2 23 Mar 03:08:48 03:10:54 14° 301° (WNW) 03:12:59 145.880/145.840
MOZHAYETS 4 23 Mar 03:10:49 03:14:14 21° 63° (ENE) 03:17:39
Tancredo 1 23 Mar 03:15:02 03:18:02 35° 8° (N) 03:21:03 437.200
Oscar 19 23 Mar 03:16:04 03:21:14 70° 103° (ESE) 03:26:23 437.125/150
DUCHIFAT 1 23 Mar 03:28:06 03:29:24 11° 302° (WNW) 03:30:42 145.980
BEESAT 23 Mar 03:53:18 03:58:04 70° 257° (WSW) 04:02:52 436.000
BEESAT 2 23 Mar 03:53:52 03:55:30 12° 333° (NNW) 03:57:08 435.950
CUBESAT XI-V 23 Mar 03:54:36 03:55:42 11° 56° (NE) 03:56:48 437.345
BUGSAT 1 23 Mar 04:00:16 04:02:23 14° 301° (WNW) 04:04:30 437.445
ITUPSAT 1 23 Mar 04:06:52 04:11:34 53° 260° (W) 04:16:16 437.325
AO-7 23 Mar 04:08:51 04:15:16 24° 91° (E) 04:21:38 .
STARS 23 Mar 04:12:51 04:13:28 10° 55° (NE) 04:14:06 437.465
O/OREOS (USA 219) 23 Mar 04:25:39 04:30:17 83° 64° (ENE) 04:34:54 437.305
ISS 23 Mar 04:33:12 04:36:30 70° 23° (NNE) 04:39:47 437.550
Gurwin Techsat 1B 23 Mar 04:37:21 04:42:22 43° 293° (WNW) 04:47:21 435.225
MOZHAYETS 4 23 Mar 04:46:35 04:51:04 50° 260° (W) 04:55:33
Tancredo 1 23 Mar 04:51:12 04:54:26 84° 208° (SSW) 04:57:39 437.200
ITAMSAT 1 23 Mar 04:54:06 04:59:14 55° 101° (E) 05:04:19 435.822/435.867
Oscar 19 23 Mar 04:56:29 05:00:02 19° 301° (WNW) 05:03:36 437.125/150
KKS-1 23 Mar 04:57:10 05:01:31 54° 71° (ENE) 05:05:54 437.445
CUBESAT XI-V 23 Mar 05:27:41 05:32:16 76° 75° (ENE) 05:36:53 437.345
AO-85 23 Mar 05:38:28 05:40:27 13° 30° (NNE) 05:42:27 145.980
STARS 23 Mar 05:44:36 05:49:00 75° 75° (ENE) 05:53:28 437.465
M-CUBED/EXP-1 PRIME 23 Mar 05:52:07 05:55:07 24° 59° (ENE) 05:58:20 437.505
AO-7 23 Mar 06:00:37 06:08:57 83° 292° (WNW) 06:17:14 .
O/OREOS (USA 219) 23 Mar 06:07:16 06:08:59 12° 263° (W) 06:10:41 437.305
ISS 23 Mar 06:10:04 06:12:43 23° 221° (SW) 06:15:24 437.550
STRAND 1 23 Mar 06:23:55 06:25:52 12° 54° (NE) 06:27:49 437.568
Tancredo 1 23 Mar 06:28:19 06:30:10 14° 225° (SW) 06:32:00 437.200
ITAMSAT 1 23 Mar 06:34:16 06:38:20 24° 299° (WNW) 06:42:24 435.822/435.867
KKS-1 23 Mar 06:35:24 06:38:25 18° 269° (W) 06:41:26 437.445
XW-2D 23 Mar 06:47:09 06:48:22 11° 89° (E) 06:49:34 145.860 - 145.880
XW-2B 23 Mar 06:52:32 06:54:15 13° 90° (E) 06:55:57 145.730 - 145.750
NUDT-PHONESAT 23 Mar 07:00:37 07:02:16 12° 90° (E) 07:03:53 437.300
XW-2C 23 Mar 07:01:55 07:04:22 16° 91° (E) 07:06:48 145.795 - 145.815
KAITUO 1B 23 Mar 07:02:38 07:04:30 13° 90° (E) 07:06:21 145.475/437.950
BEESAT 3 23 Mar 07:07:07 07:08:56 13° 29° (NNE) 07:10:43 437.485
CUBESAT XI-V 23 Mar 07:08:09 07:10:12 13° 272° (W) 07:12:16 437.345
AO-85 23 Mar 07:17:39 07:21:35 70° 51° (NE) 07:25:33 145.980
STARS 23 Mar 07:23:59 07:25:53 12° 271° (W) 07:27:47 437.465
M-CUBED/EXP-1 PRIME 23 Mar 07:26:13 07:29:28 31° 259° (W) 07:32:58 437.505
DOVE 4 23 Mar 07:38:05 07:43:21 62° 100° (E) 07:48:35 437.250
LilacSat-2 23 Mar 07:50:00 07:53:46 61° 101° (ESE) 07:57:29 437.200
AO-7 23 Mar 07:54:28 08:00:37 24° 313° (NW) 08:06:44 .
CUTE-I 23 Mar 07:54:38 07:59:54 55° 101° (E) 08:05:08 437.470
XW-2F 23 Mar 07:55:46 07:59:30 66° 101° (ESE) 08:03:12 145.980 - 146.000
STRAND 1 23 Mar 07:59:01 08:04:08 71° 72° (ENE) 08:09:18 437.568
XW-2A 23 Mar 08:13:49 08:15:49 15° 92° (E) 08:17:49 145.665 - 145.685
HO-68 23 Mar 08:18:34 08:24:21 26° 92° (E) 08:30:07 435.675
XW-2D 23 Mar 08:19:15 08:22:58 60° 286° (WNW) 08:26:39 145.860 - 145.880
XW-2B 23 Mar 08:25:06 08:28:47 53° 287° (WNW) 08:32:26 145.730 - 145.750
NO-84 23 Mar 08:30:07 08:30:36 10° 128° (SE) 08:31:05 435.350 FM
NUDT-PHONESAT 23 Mar 08:32:55 08:36:31 52° 287° (WNW) 08:40:06 437.300
XW-2C 23 Mar 08:35:13 08:38:46 40° 289° (WNW) 08:42:17 145.795 - 145.815
KAITUO 1B 23 Mar 08:35:14 08:38:49 48° 288° (WNW) 08:42:23 145.475/437.950
YUBILEINY 23 Mar 08:43:13 08:51:31 50° 89° (E) 08:59:48 435.215
BEESAT 3 23 Mar 08:43:25 08:47:24 56° 49° (NE) 08:51:21 437.485
BEESAT 2 23 Mar 08:50:26 08:54:07 32° 43° (NE) 08:57:46 435.950
AO-85 23 Mar 08:59:37 09:01:27 13° 249° (WSW) 09:03:18 145.980
AAUSAT CUBESAT 2 23 Mar 09:00:44 09:03:14 15° 90° (E) 09:05:42 437.432
CUTE 1.7 + AOD 2 23 Mar 09:03:04 09:07:08 47° 99° (E) 09:11:12 437.475
SEEDS 23 Mar 09:03:47 09:07:34 32° 96° (E) 09:11:19 437.485
DOVE 4 23 Mar 09:16:34 09:20:34 22° 298° (WNW) 09:24:36 437.250
UWE-3 23 Mar 09:16:41 09:19:55 20° 91° (E) 09:23:06 435.000/436.395/437.385
PRISM 23 Mar 09:25:30 09:28:39 22° 64° (ENE) 09:31:49 437.425
LilacSat-2 23 Mar 09:25:53 09:27:34 13° 299° (WNW) 09:29:16 437.200
XW-2F 23 Mar 09:31:46 09:33:08 12° 299° (WNW) 09:34:30 145.980 - 146.000
CUTE-I 23 Mar 09:35:20 09:39:36 25° 299° (WNW) 09:43:52 437.470
STRAND 1 23 Mar 09:40:37 09:43:51 17° 271° (W) 09:47:06 437.568
CUBEBUG 2 23 Mar 09:41:27 09:45:54 57° 100° (E) 09:50:10 437.445
XW-2A 23 Mar 09:45:36 09:48:46 36° 289° (WNW) 09:51:53 145.665 - 145.685
FO-29 23 Mar 09:48:26 09:54:35 27° 58° (ENE) 10:00:28 435.910
NO-84 23 Mar 10:04:48 10:07:40 83° 329° (NNW) 10:10:35 435.350 FM
Oscar 11 23 Mar 10:05:25 10:09:11 29° 95° (E) 10:12:57 .
HO-68 23 Mar 10:05:33 10:12:40 70° 291° (WNW) 10:19:47 435.675
ZACube-1 23 Mar 10:05:41 10:09:41 37° 97° (E) 10:13:34 437.345
BEESAT 3 23 Mar 10:21:57 10:24:36 17° 248° (WSW) 10:27:16 437.485
BEESAT 2 23 Mar 10:28:13 10:31:53 33° 242° (WSW) 10:35:32 435.950
TIGRISAT 23 Mar 10:29:42 10:34:13 48° 71° (ENE) 10:38:44 435.000
AAUSAT CUBESAT 2 23 Mar 10:34:58 10:39:01 53° 288° (WNW) 10:43:03 437.432
AO-73 23 Mar 10:36:12 10:40:30 71° 102° (ESE) 10:44:39 145.935
UNISAT 6 23 Mar 10:38:33 10:43:12 63° 73° (ENE) 10:47:50 437.425
SEEDS 23 Mar 10:39:40 10:43:09 26° 293° (WNW) 10:46:37 437.485
CUTE 1.7 + AOD 2 23 Mar 10:39:41 10:42:39 19° 297° (WNW) 10:45:37 437.475
YUBILEINY 23 Mar 10:40:19 10:48:29 42° 291° (WNW) 10:56:41 435.215
UWE-3 23 Mar 10:52:27 10:56:37 43° 290° (WNW) 11:00:40 435.000/436.395/437.385
DELFI C3 23 Mar 10:53:16 10:56:46 29° 95° (E) 11:00:16 145.870
QB50P2 23 Mar 10:55:04 10:55:30 10° 57° (ENE) 10:55:55 145.880/145.840
PRISM 23 Mar 10:59:58 11:03:44 37° 262° (W) 11:07:33 437.425
PCSat 23 Mar 11:09:22 11:14:11 34° 112° (ESE) 11:19:02 145.827
DUCHIFAT 1 23 Mar 11:11:52 11:13:25 12° 58° (ENE) 11:14:59 145.980
CUBEBUG 2 23 Mar 11:19:03 11:22:04 18° 299° (WNW) 11:25:01 437.445
FO-29 23 Mar 11:31:02 11:38:56 81° 256° (WSW) 11:46:24 435.910
Oscar 11 23 Mar 11:41:33 11:45:18 30° 293° (WNW) 11:49:01 .
ZACube-1 23 Mar 11:42:21 11:45:46 24° 295° (WNW) 11:49:07 437.345
NO-84 23 Mar 11:43:17 11:45:34 21° 347° (NNW) 11:47:57 435.350 FM
ESTCUBE 1 23 Mar 11:52:49 11:52:55 10° 86° (E) 11:53:00 437.505/2401.250
NANOSAT C BR1 23 Mar 11:53:15 11:57:02 31° 67° (ENE) 12:00:48 145.865
HO-68 23 Mar 11:54:52 11:59:12 17° 312° (NW) 12:03:31 435.675
EO-79 23 Mar 11:55:17 11:59:11 35° 68° (ENE) 12:03:06 145.935-145.965
LO-87 23 Mar 12:01:44 12:04:33 21° 94° (E) 12:07:20 145.935 - 145.965
AIST 2D 23 Mar 12:06:07 12:09:39 73° 76° (ENE) 12:13:12 435.315
TIGRISAT 23 Mar 12:07:33 12:11:08 21° 268° (W) 12:14:43 435.000
AO-73 23 Mar 12:14:01 12:16:09 14° 301° (WNW) 12:18:16 145.935
UNISAT 6 23 Mar 12:17:19 12:20:18 17° 270° (W) 12:23:17 437.425
POLYITAN 1 23 Mar 12:21:50 12:26:05 66° 74° (ENE) 12:30:22 437.675
QB50P2 23 Mar 12:26:14 12:30:32 79° 74° (ENE) 12:34:50 145.880/145.840
DELFI C3 23 Mar 12:28:09 12:31:29 26° 293° (WNW) 12:34:48 145.870
DUCHIFAT 1 23 Mar 12:44:10 12:48:26 87° 258° (WSW) 12:52:44 145.980
Gurwin Techsat 1B 23 Mar 12:46:31 12:47:42 11° 51° (NE) 12:48:54 435.225
PCSat 23 Mar 12:52:17 12:57:28 44° 311° (NW) 13:02:41 145.827
SPROUT 23 Mar 12:55:32 12:57:23 12° 88° (E) 12:59:14 437.525
Oscar 19 23 Mar 12:58:22 13:02:06 21° 60° (ENE) 13:05:51 437.125/150
BUGSAT 1 23 Mar 13:15:13 13:19:25 72° 74° (ENE) 13:23:40 437.445
50 SAT 23 Mar 13:17:37 13:19:16 13° 91° (E) 13:20:55 437.505
VELOX 1 23 Mar 13:18:18 13:22:00 25° 94° (E) 13:25:40 145.980
FO-29 23 Mar 13:19:47 13:24:51 18° 274° (W) 13:29:48 435.910
NO-84 23 Mar 13:21:41 13:23:56 19° 9° (N) 13:26:17 435.350 FM
AO-7 23 Mar 13:24:03 13:27:39 14° 35° (NE) 13:31:15 .
ESTCUBE 1 23 Mar 13:25:52 13:30:23 88° 101° (E) 13:34:54 437.505/2401.250
RS-15 23 Mar 13:26:58 13:37:23 37° 105° (ESE) 13:48:03 29.354- 29.394
NANOSAT C BR1 23 Mar 13:29:04 13:32:44 28° 265° (W) 13:36:26 145.865
EO-79 23 Mar 13:31:29 13:35:01 25° 266° (W) 13:38:33 145.935-145.965
LO-87 23 Mar 13:34:48 13:38:03 30° 291° (WNW) 13:41:16 145.935 - 145.965
UKube-1 23 Mar 13:55:26 13:58:26 18° 92° (E) 14:01:25 .
POLYITAN 1 23 Mar 14:00:12 14:02:19 13° 271° (W) 14:04:28 437.675
QB50P2 23 Mar 14:05:35 14:06:52 11° 272° (W) 14:08:10 145.880/145.840
Gurwin Techsat 1B 23 Mar 14:21:22 14:26:35 61° 71° (ENE) 14:31:51 435.225
SPROUT 23 Mar 14:29:30 14:33:48 71° 287° (WNW) 14:38:03 437.525
Oscar 19 23 Mar 14:35:55 14:40:59 62° 258° (WSW) 14:46:05 437.125/150
ITAMSAT 1 23 Mar 14:37:42 14:41:13 19° 58° (ENE) 14:44:44 435.822/435.867
PCSat 23 Mar 14:39:39 14:42:19 14° 335° (NNW) 14:45:00 145.827
DX 1 23 Mar 14:43:00 14:47:24 76° 102° (ESE) 14:51:48 434.975-435.025
50 SAT 23 Mar 14:49:13 14:52:35 46° 288° (WNW) 14:55:57 437.505
BUGSAT 1 23 Mar 14:53:34 14:55:17 12° 272° (W) 14:56:59 437.445
VELOX 1 23 Mar 14:54:25 14:58:33 38° 292° (WNW) 15:02:40 145.980
NO-84 23 Mar 14:58:57 15:02:01 49° 29° (NNE) 15:05:20 435.350 FM
ESTCUBE 1 23 Mar 15:04:35 15:06:31 13° 302° (WNW) 15:08:27 437.505/2401.250
AO-7 23 Mar 15:10:36 15:18:22 45° 59° (ENE) 15:26:07 .
UKube-1 23 Mar 15:30:33 15:34:44 49° 290° (WNW) 15:38:55 .
RS-15 23 Mar 15:36:45 15:48:53 78° 310° (NW) 16:01:23 29.354- 29.394
BEESAT 23 Mar 15:50:57 15:54:47 24° 93° (E) 15:58:36 436.000
SO-50 23 Mar 15:54:12 15:57:15 17° 111° (ESE) 16:00:18 436.795
Gurwin Techsat 1B 23 Mar 16:03:02 16:06:57 21° 269° (W) 16:10:53 435.225
ITUPSAT 1 23 Mar 16:04:30 16:08:45 31° 96° (E) 16:12:57 437.325
ITAMSAT 1 23 Mar 16:14:53 16:20:06 75° 257° (WSW) 16:25:22 435.822/435.867
DX 1 23 Mar 16:20:44 16:23:02 14° 301° (WNW) 16:25:19 434.975-435.025
NO-84 23 Mar 16:36:41 16:39:28 25° 225° (SW) 16:42:27 435.350 FM
MOZHAYETS 4 23 Mar 16:38:43 16:42:44 30° 95° (E) 16:46:43
AO-7 23 Mar 17:03:04 17:11:04 50° 259° (W) 17:19:06 .
DOVE 4 23 Mar 17:12:10 17:13:56 12° 55° (NE) 17:15:44 437.250
CUBESAT XI-V 23 Mar 17:22:24 17:25:11 16° 89° (E) 17:27:57 437.345
BEESAT 23 Mar 17:28:14 17:32:46 44° 291° (WNW) 17:37:14 436.000
SO-50 23 Mar 17:32:37 17:37:15 69° 310° (NW) 17:41:50 436.795
STARS 23 Mar 17:33:33 17:34:41 11° 87° (E) 17:35:49 437.465
XW-2B 23 Mar 17:37:45 17:38:45 11° 60° (ENE) 17:39:46 145.730 - 145.750
CUTE-I 23 Mar 17:41:27 17:45:13 20° 58° (ENE) 17:48:58 437.470
ITUPSAT 1 23 Mar 17:42:17 17:46:35 34° 294° (WNW) 17:50:50 437.325
NUDT-PHONESAT 23 Mar 17:44:25 17:44:55 10° 60° (ENE) 17:45:24 437.300
XW-2C 23 Mar 17:46:42 17:48:41 14° 62° (ENE) 17:50:40 145.795 - 145.815
KAITUO 1B 23 Mar 17:46:42 17:47:46 11° 60° (ENE) 17:48:49 145.475/437.950
RS-15 23 Mar 17:52:29 18:03:42 38° 340° (NNW) 18:15:00 29.354- 29.394
ITAMSAT 1 23 Mar 17:59:56 18:00:28 10° 275° (W) 18:01:00 435.822/435.867
PCSat 23 Mar 18:11:16 18:14:24 15° 28° (NNE) 18:17:31 145.827
MOZHAYETS 4 23 Mar 18:15:50 18:19:54 32° 293° (WNW) 18:23:56
KKS-1 23 Mar 18:21:24 18:25:54 72° 103° (ESE) 18:30:23 437.445
LilacSat-2 23 Mar 18:34:20 18:38:00 44° 72° (ENE) 18:41:40 437.200
